EHI
23 23 25 27 31 35 37 37 35 33 30 24 17 11 6 2 1 2 2 1 1 1 1 1 2 3 3 1 0 0 0 0 0 0 0 0 0 1 1 1 1 0 0
30 32 34 33 35 39 39 37 37 35 30 24 17 12 7 3 2 3 3 2 1 1 1 1 2 2 3 2 1 0 0 0 0 0 0 0 1 1 1 1 1 0 0
36 41 42 38 35 37 38 37 41 39 33 24 17 13 9 5 3 4 4 2 2 2 1 1 1 1 2 2 1 0 0 0 1 1 1 1 1 1 1 1 1 1 0
36 42 44 38 31 30 33 39 43 43 37 29 21 15 11 7 5 4 4 3 2 2 2 1 1 1 2 2 1 1 1 2 2 3 3 3 2 1 1 0 0 1 1
34 39 42 35 25 23 29 37 43 44 41 35 29 22 14 9 7 5 4 4 3 3 2 1 2 2 3 3 3 3 3 4 4 3 3 3 2 3 2 1 0 0 0
32 36 39 35 26 22 27 35 42 43 40 36 32 26 19 14 12 9 6 6 5 5 3 2 3 4 4 4 4 5 6 6 5 3 2 2 2 3 3 2 0 0 0
33 36 39 39 34 30 31 37 42 42 36 31 28 26 22 19 17 12 9 8 6 5 4 3 4 5 4 4 5 6 7 7 6 4 2 2 2 3 3 2 1 0 0
37 38 39 40 40 37 36 40 43 41 34 28 25 25 24 22 18 14 11 8 6 5 4 3 3 4 5 6 7 6 7 8 7 5 3 2 2 3 3 3 3 1 0
42 40 37 36 36 35 35 39 43 40 34 28 25 26 27 25 21 17 12 8 7 5 5 4 4 4 6 9 8 7 8 10 9 7 5 3 3 4 5 5 4 1 0
41 41 38 35 33 31 33 39 41 40 36 31 28 28 29 28 23 18 14 10 7 5 4 4 4 5 8 10 9 8 8 9 10 9 6 4 4 4 5 5 4 2 2
39 40 42 39 34 33 36 40 40 38 36 33 30 30 30 27 22 18 16 13 8 6 5 5 4 5 6 8 8 6 6 7 7 6 5 5 4 3 3 3 3 3 3
43 44 46 44 40 39 41 42 39 36 34 33 34 34 31 24 20 19 19 17 12 9 8 6 4 4 4 5 5 5 4 4 4 4 4 5 4 3 2 1 1 2 2
53 54 55 53 50 49 49 46 41 37 35 37 39 37 31 25 21 21 21 18 14 11 10 8 5 3 3 3 3 3 3 3 3 3 4 4 4 2 1 0 0 0 1
65 65 67 67 63 60 56 52 48 45 44 45 45 40 35 30 26 23 20 16 13 12 11 9 5 3 2 2 1 1 2 2 2 2 3 3 2 1 0 0 0 0 1
73 75 77 76 72 67 64 60 59 58 57 55 51 47 43 37 30 23 19 17 15 12 11 9 6 3 1 0 0 1 2 2 2 2 1 1 0 0 0 0 0 0 1
69 75 80 80 77 74 71 68 67 66 65 63 59 55 49 39 30 23 20 19 17 13 11 8 4 2 1 0 0 0 1 3 3 2 1 0 0 0 0 0 0 0 0
61 68 76 80 81 78 73 70 68 67 68 68 66 61 52 40 31 27 25 22 19 15 12 7 3 2 1 0 0 0 1 2 2 1 0 0 0 0 0 0 0 0 0
60 65 70 75 79 78 72 67 66 67 69 70 69 62 53 42 36 34 31 26 22 19 15 10 5 4 2 0 0 0 0 0 0 0 0 0 0 0 0 0 0 0 0
67 66 66 70 76 77 73 69 68 69 70 69 66 59 51 43 39 36 32 28 24 22 19 13 9 7 5 1 0 0 0 0 0 0 0 0 0 0 0 0 0 0 0
66 65 66 71 78 79 76 73 70 68 67 64 59 53 47 42 38 34 30 27 25 22 19 16 12 10 6 2 0 0 0 0 0 0 0 0 0 0 0 0 0 0 0
59 62 66 73 78 79 76 73 69 65 62 58 52 46 43 39 36 32 29 26 24 22 20 18 15 11 6 2 0 0 0 0 0 0 0 0 0 0 0 0 0 0 0
57 59 63 68 73 73 70 68 66 64 61 57 51 45 41 37 34 32 29 24 22 22 21 18 14 10 7 2 0 0 0 0 1 1 1 0 0 0 0 0 0 0 0
54 54 55 58 60 62 60 59 59 60 59 57 53 46 39 35 32 30 25 21 20 20 19 16 12 10 8 4 1 0 0 0 1 1 1 0 0 0 0 0 0 0 0
49 47 46 46 46 47 48 49 49 50 51 52 48 41 35 31 29 25 21 17 16 16 16 15 13 11 9 5 2 0 0 0 0 0 0 0 0 0 0 0 0 0 0
43 40 38 37 36 37 38 39 39 41 44 44 39 33 30 28 26 21 17 13 11 10 10 11 11 9 6 3 1 0 0 0 0 0 0 0 0 0 0 0 0 0 0
38 36 34 33 33 34 34 34 35 38 41 39 31 27 27 27 24 20 15 10 7 5 5 5 5 4 3 1 0 0 0 0 0 0 0 0 0 0 0 0 0 0 0
Wind_Speed
9 9 10 10 10 10 10 10 10 9 7 5 5 4 4 4 4 4 5 5 5 5 4 4 3 4 3 3 4 3 4 4 3 3 3 3 4 3 3 4 3 4 4
10 10 10 10 11 11 11 11 11 10 9 6 4 3 3 3 3 3 3 5 5 5 5 4 4 4 3 4 4 4 4 3 3 4 4 3 3 4 3 3 3 3 3
11 11 11 11 11 11 11 10 10 10 9 8 5 4 3 3 4 5 4 5 5 5 5 4 5 4 5 4 4 5 6 4 4 4 4 3 2 1 2 2 2 2 2
10 11 11 11 11 11 10 10 10 10 9 9 7 7 5 5 4 4 3 4 5 5 5 5 5 5 5 4 6 5 4 5 5 4 4 5 3 3 2 2 3 3 3
10 11 11 10 10 10 9 9 10 10 10 9 8 8 7 5 4 4 4 4 4 5 5 5 5 5 5 4 5 3 5 5 5 5 4 4 4 6 4 3 2 2 2
9 9 10 10 9 9 9 9 10 9 9 10 9 9 7 6 5 5 4 4 3 3 4 4 4 4 4 4 4 5 6 5 5 5 4 4 4 4 4 4 4 3 2
9 10 10 11 10 10 10 10 10 10 10 10 9 8 7 7 7 6 5 4 3 3 4 4 3 3 3 4 4 4 5 5 5 6 5 4 5 4 4 4 4 3 2
9 10 10 11 11 11 11 10 10 9 9 9 8 7 7 6 5 5 4 4 3 3 2 3 3 3 4 4 4 4 5 4 5 6 5 4 4 4 4 4 4 4 3
9 9 10 11 11 10 10 10 10 9 9 9 8 7 7 6 5 5 5 4 3 3 3 3 3 3 3 3 4 3 4 4 5 5 5 4 3 4 3 3 4 4 4
9 9 10 10 10 10 9 9 9 8 8 8 7 6 7 7 5 5 4 4 3 3 3 3 3 3 3 3 3 3 3 4 3 3 3 3 3 3 3 3 4 5 4
10 9 9 10 10 10 10 10 9 8 8 7 7 6 6 6 5 5 4 4 4 3 3 3 3 2 2 2 2 3 2 3 3 3 3 3 3 2 3 3 3 3 3
8 9 10 10 10 11 10 10 9 9 8 7 7 7 6 6 6 5 5 4 4 4 3 3 2 2 2 2 2 3 2 3 3 3 3 3 2 2 2 2 3 2 2
8 9 10 10 10 10 10 10 10 9 8 8 8 7 7 7 6 5 5 4 4 3 3 3 2 2 1 1 1 2 2 2 2 2 2 2 2 2 1 2 2 1 2
8 9 10 10 9 9 9 9 9 9 9 8 8 7 7 6 6 5 5 4 4 4 3 3 2 2 1 1 1 1 1 1 1 1 1 1 1 1 1 1 1 1 2
8 9 9 9 10 10 9 9 9 9 8 8 8 7 7 6 6 5 5 4 4 4 3 3 2 2 1 0 1 1 1 1 0 1 1 1 3 3 2 1 1 2 2
8 8 9 9 10 10 9 9 9 9 8 8 8 7 7 7 6 6 5 5 4 3 3 3 2 2 1 4 3 3 0 0 1 1 1 2 3 4 3 3 2 0 2
6 8 8 8 8 9 9 10 9 9 9 9 8 8 8 7 7 7 6 5 4 4 3 3 3 3 4 4 2 2 1 1 1 1 1 1 3 1 2 3 3 2 2
4 6 6 7 8 8 9 9 10 10 9 9 8 8 8 7 7 7 6 6 4 4 3 3 3 3 4 4 2 1 1 2 2 1 1 1 2 2 2 1 2 3 3
2 3 5 6 7 8 8 9 10 9 9 9 8 8 8 7 7 7 6 5 5 4 4 3 3 3 4 4 2 2 2 2 2 2 2 2 2 4 2 1 3 3 3
1 2 3 5 6 7 8 9 9 9 9 8 8 7 7 7 7 7 6 5 5 5 4 4 3 3 3 4 2 2 2 2 2 2 2 4 3 3 2 1 2 3 3
2 2 3 4 5 6 7 7 7 7 7 7 7 7 7 7 7 6 6 6 5 5 4 4 4 3 3 5 3 2 2 2 2 2 1 3 4 3 2 1 1 2 1
4 3 3 3 4 5 5 5 6 6 6 7 8 8 7 6 6 6 6 5 5 5 5 5 4 4 4 3 4 2 1 3 1 1 1 4 5 3 1 1 3 1 2
4 3 4 4 4 4 3 4 4 5 6 7 7 8 7 6 6 7 7 6 5 4 4 4 4 4 4 5 5 4 2 0 1 2 5 4 4 5 3 3 2 3 2
3 2 3 3 3 3 3 3 4 5 6 6 7 7 7 6 6 5 5 5 5 4 4 4 4 3 4 3 4 5 5 5 4 3 5 5 3 2 2 4 4 2 1
3 2 2 2 3 3 3 3 3 4 5 6 5 6 6 6 5 4 2 2 2 1 2 3 3 3 3 3 2 2 3 3 3 3 4 4 4 4 3 3 2 2 2
2 2 2 2 2 2 2 2 2 3 5 5 5 4 4 5 5 5 4 5 3 5 4 3 1 2 4 5 4 2 2 2 2 3 4 4 3 3 3 3 3 3 2
Wind_Direction
188 186 190 194 191 190 191 192 193 184 188 192 202 202 200 197 204 212 202 209 214 205 222 239 203 228 219 228 224 224 220 225 222 241 231 225 225 217 214 227 229 208 209
184 183 191 192 194 191 193 191 190 189 195 191 200 209 211 211 205 221 207 217 213 218 217 226 231 222 223 224 229 225 246 243 219 243 250 237 211 203 210 213 217 229 218
190 185 190 192 193 191 193 192 189 189 196 192 195 194 196 216 211 212 207 216 216 220 237 228 240 235 234 223 227 231 232 241 236 239 256 263 249 227 187 204 217 226 237
194 188 187 190 192 191 188 186 186 189 191 191 202 206 212 219 216 220 213 214 221 226 226 232 235 241 248 237 236 228 238 242 243 229 241 263 290 270 235 214 197 202 227
192 188 187 187 186 185 183 182 184 188 190 196 203 213 222 224 218 214 209 225 220 226 226 226 232 234 245 245 257 255 247 241 245 242 232 236 237 245 251 248 240 225 229
183 181 180 179 180 180 180 179 180 187 189 196 205 214 220 219 220 221 219 222 216 220 222 227 233 238 246 240 241 244 239 246 248 252 245 241 242 240 245 249 246 243 241
173 173 177 177 179 180 181 180 181 187 190 196 203 208 212 212 216 225 217 229 228 217 214 227 229 238 240 243 241 237 246 242 241 245 249 249 251 252 248 247 254 256 252
168 171 174 175 178 181 182 183 185 187 188 194 198 203 207 215 215 216 232 225 237 239 227 220 228 236 236 237 238 243 241 242 245 248 253 253 251 252 248 252 248 249 246
165 168 171 174 177 181 182 183 183 186 186 190 191 194 200 214 221 215 223 224 226 230 216 221 225 233 235 236 234 244 249 253 254 251 242 251 245 244 249 249 246 247 249
167 168 170 172 172 174 174 177 180 183 185 186 191 188 194 202 211 220 217 224 228 232 220 216 217 225 229 226 230 236 244 252 259 267 266 260 258 254 244 242 244 243 246
171 169 169 168 168 168 168 171 175 180 182 184 185 188 188 193 200 204 208 211 216 212 209 210 218 222 231 235 233 245 245 253 262 261 246 243 259 258 253 247 242 239 231
168 167 165 166 170 170 170 171 175 178 179 178 178 181 183 189 192 193 197 198 199 202 196 204 212 220 220 232 246 257 257 262 267 272 266 255 241 245 260 255 244 237 222
168 166 166 170 173 172 172 172 176 175 175 173 176 176 181 184 188 185 184 186 185 188 186 192 195 198 213 230 249 273 277 265 271 278 273 272 261 251 249 254 244 209 191
170 172 171 175 173 170 171 173 175 172 173 173 175 176 179 178 177 174 174 174 176 179 178 178 177 182 180 221 263 274 279 267 276 292 301 306 311 310 274 233 211 179 174
175 177 178 174 174 172 172 173 172 171 174 175 174 173 170 168 168 168 168 165 169 171 166 170 171 176 180 41 327 262 226 240 285 52 30 54 56 40 357 303 200 184 191
183 182 180 175 176 176 176 173 173 171 173 176 174 167 166 166 165 164 162 161 163 160 162 170 171 160 97 69 28 323 224 92 71 68 59 102 101 83 76 58 53 134 197
193 189 185 182 178 178 178 176 172 171 174 174 170 168 170 169 169 166 162 165 167 161 159 155 147 127 95 89 71 348 309 101 76 60 31 31 70 76 103 111 123 101 97
201 192 188 181 177 176 176 175 171 171 172 171 168 166 170 169 168 167 164 164 165 161 158 153 143 131 109 108 107 295 196 90 80 62 51 55 74 52 38 107 102 89 78
207 191 193 181 172 171 171 171 172 169 170 170 169 168 168 166 168 167 163 163 165 163 157 147 145 141 125 121 137 266 162 125 105 76 51 34 80 57 6 128 115 105 97
121 172 178 166 161 164 166 171 172 170 174 172 169 165 168 171 173 169 167 165 168 162 158 146 149 150 135 128 154 260 206 153 144 123 114 77 56 67 3 165 139 131 116
70 110 142 150 152 157 164 172 169 172 170 164 161 162 168 173 170 166 167 167 170 164 162 149 145 141 133 140 152 259 256 190 179 164 142 99 90 80 39 327 72 83 118
66 87 110 117 129 146 163 169 167 164 164 162 161 160 165 169 162 162 163 167 169 165 163 160 163 158 152 135 140 147 283 317 186 166 118 100 115 110 81 71 75 95 230
61 77 101 111 115 131 158 165 156 160 166 164 164 162 162 162 162 165 165 167 173 181 176 178 179 169 156 137 137 147 142 342 237 86 77 105 147 162 145 134 164 213 196
48 65 88 104 114 125 138 144 150 164 166 167 165 161 158 158 160 169 173 173 177 183 184 184 181 168 162 157 154 159 160 163 171 158 139 154 171 187 124 160 187 205 175
23 38 70 92 102 113 114 124 150 165 165 162 159 158 158 156 157 154 137 171 159 169 190 181 178 177 170 125 103 184 174 181 164 174 184 185 181 185 180 178 177 179 175
34 47 58 74 87 102 108 123 150 166 171 166 163 161 159 160 163 154 139 66 71 88 85 61 71 112 103 120 131 140 120 129 162 208 199 196 201 202 195 192 185 190 197